This demonstration page uses our WeatherBlox Daily Observations layout. Learn more.

Left ArrowRight Arrow

38.83388, -104.82136

Hourly Observations for November 17, 2019

Temp ( °F °C ) Dew Point ( °F °C ) Humidity (%) Winds ( mph kmh ) Pressure ( in mb ) Visibility ( mi km ) Precip ( " mm )
12:43 am 00:43 Mostly Cloudy 34 1 25 -4 70 70 N 12 19 29.82 1010 10 16 0.00 0.00
12:58 am 00:58 Mostly Cloudy 33 0.4 25 -3.9 73 73 NNW 9 15 29.82 1010 10 16 0.00 0.00
1:58 am 01:58 Cloudy 33 0.6 23 -4.8 67 67 NW 5 7 29.83 1010 10 16 0.00 0.00
2:58 am 02:58 Cloudy 33 0.7 23 -5.1 66 66 Calm 29.83 1010 10 16 0.00 0.00
3:58 am 03:58 Cloudy 33 0.6 26 -3.4 75 75 S 5 7 29.84 1010 10 16 0.00 0.00
4:58 am 04:58 Partly Cloudy 31 -0.6 24 -4.3 76 76 Calm 29.85 1011 10 16 0.00 0.00
5:58 am 05:58 Clear 30 -1.1 24 -4.5 78 78 Calm 29.84 1011 10 16 0.00 0.00
6:58 am 06:58 Sunny 31 -0.6 25 -3.7 80 80 S 6 9 29.85 1011 10 16 0.00 0.00
7:58 am 07:58 Sunny 31 -0.4 26 -3.3 81 81 SE 5 7 29.92 1013 10 16 0.00 0.00
11:56 am 11:56 Sunny 44 6.7 29 -1.8 55 55 ESE 9 15 29.80 1009 10 16 0.00 0.00
12:58 pm 12:58 Sunny 45 7.4 27 -2.8 49 49 SE 8 13 29.77 1008 10 16 0.00 0.00
1:58 pm 13:58 Sunny 46 7.7 26 -3.1 47 47 SE 9 15 29.75 1007 10 16 0.00 0.00
2:58 pm 14:58 Sunny 44 6.5 26 -3.5 49 49 SE 5 7 29.75 1007 10 16 0.00 0.00
3:58 pm 15:58 Sunny 43 6 25 -3.9 49 49 S 8 13 29.77 1008 10 16 0.00 0.00
4:58 pm 16:58 Clear 41 5.1 26 -3.2 55 55 Calm 29.80 1009 10 16 0.00 0.00
5:58 pm 17:58 Clear 41 4.9 25 -3.7 54 54 Calm 29.80 1009 10 16 0.00 0.00
6:58 pm 18:58 Clear 45 7.2 24 -4.6 43 43 Calm 29.79 1009 10 16 0.00 0.00
7:58 pm 19:58 Mostly Cloudy 43 6.1 22 -5.7 43 43 S 9 15 29.77 1008 10 16 0.00 0.00
8:58 pm 20:58 Mostly Cloudy 44 6.8 23 -5.1 43 43 Calm 29.90 1012 10 16 0.00 0.00
9:58 pm 21:58 Clear 46 7.7 19 -7.1 35 35 SSW 9 15 29.85 1011 10 16 0.00 0.00
10:58 pm 22:58 Mostly Cloudy 49 9.5 21 -6.2 33 33 Calm 29.80 1009 10 16 0.00 0.00
11:58 pm 23:58 Mostly Cloudy 53 11.7 22 -5.7 29 29 NW 8 13 29.60 1002 10 16 0.00 0.00

Powered by AerisWeather